timestamp,wind_dir_avg,wind_spd_max_dir,wind_spd_avg,wind_spd_gust,battery_voltage,lat,long
2017-12-14 00:00:00+00:00,147.0,148.0,6.35,8.05,,47.59359,-54.27349
2017-12-14 00:10:00+00:00,137.0,137.0,5.75,6.93,,47.59359,-54.27349
2017-12-14 00:20:00+00:00,145.0,155.0,6.23,8.11,,47.59359,-54.27349
2017-12-14 00:30:00+00:00,155.0,154.0,8.01,8.94,,47.59359,-54.27349
2017-12-14 00:40:00+00:00,151.0,150.0,4.7,5.54,,47.59359,-54.27349
2017-12-14 00:50:00+00:00,120.0,142.0,3.0,4.62,,47.59359,-54.27349
2017-12-14 01:00:00+00:00,112.0,114.0,3.16,5.69,,47.59359,-54.27349
2017-12-14 01:10:00+00:00,54.0,46.0,2.65,3.43,,47.59359,-54.27349
2017-12-14 01:20:00+00:00,85.0,86.0,5.89,6.73,,47.59359,-54.27349
2017-12-14 01:30:00+00:00,85.0,83.0,5.96,6.6,,47.59359,-54.27349
2017-12-14 01:40:00+00:00,81.0,78.0,4.61,5.64,,47.59359,-54.27349
2017-12-14 01:50:00+00:00,64.0,67.0,4.94,5.85,,47.59359,-54.27349
2017-12-14 02:00:00+00:00,52.0,54.0,6.81,7.61,,47.59359,-54.27349
2017-12-14 02:10:00+00:00,65.0,69.0,6.58,7.48,,47.59359,-54.27349
2017-12-14 02:20:00+00:00,72.0,73.0,2.43,3.17,,47.59359,-54.27349
2017-12-14 02:30:00+00:00,96.0,109.0,1.75,2.36,,47.59359,-54.27349
2017-12-14 02:40:00+00:00,145.0,144.0,1.66,2.44,,47.59359,-54.27349
2017-12-14 02:50:00+00:00,88.0,87.0,1.19,1.91,,47.59359,-54.27349
2017-12-14 03:00:00+00:00,51.0,49.0,0.95,1.13,,47.59359,-54.27349
2017-12-14 03:10:00+00:00,95.0,70.0,0.82,1.33,,47.59359,-54.27349
2017-12-14 03:20:00+00:00,182.0,196.0,2.02,2.58,,47.59359,-54.27349
2017-12-14 03:30:00+00:00,167.0,169.0,1.8,2.37,,47.59359,-54.27349
2017-12-14 03:40:00+00:00,180.0,177.0,3.03,3.41,,47.59359,-54.27349
2017-12-14 03:50:00+00:00,212.0,213.0,5.44,5.95,,47.59359,-54.27349
2017-12-14 04:00:00+00:00,233.0,231.0,7.2,8.53,,47.59359,-54.27349
2017-12-14 04:10:00+00:00,240.0,249.0,4.8,5.92,,47.59359,-54.27349
2017-12-14 04:20:00+00:00,217.0,218.0,2.55,3.1,,47.59359,-54.27349
2017-12-14 04:30:00+00:00,264.0,253.0,2.22,2.71,,47.59359,-54.27349
2017-12-14 04:40:00+00:00,260.0,262.0,3.26,3.8,,47.59359,-54.27349
2017-12-14 04:50:00+00:00,213.0,216.0,9.73,11.13,,47.59359,-54.27349
2017-12-14 05:00:00+00:00,211.0,210.0,12.04,14.03,,47.59359,-54.27349
2017-12-14 05:10:00+00:00,215.0,218.0,14.07,15.38,,47.59359,-54.27349
2017-12-14 05:20:00+00:00,227.0,228.0,13.39,16.25,,47.59359,-54.27349
2017-12-14 05:30:00+00:00,219.0,219.0,16.39,19.56,,47.59359,-54.27349
2017-12-14 05:40:00+00:00,224.0,224.0,16.43,19.8,,47.59359,-54.27349
2017-12-14 05:50:00+00:00,226.0,232.0,15.41,22.32,,47.59359,-54.27349
2017-12-14 06:00:00+00:00,229.0,231.0,16.19,18.43,,47.59359,-54.27349
2017-12-14 06:10:00+00:00,228.0,230.0,14.72,17.8,,47.59359,-54.27349
2017-12-14 06:20:00+00:00,229.0,232.0,14.24,16.81,,47.59359,-54.27349
2017-12-14 06:30:00+00:00,228.0,223.0,14.58,16.97,,47.59359,-54.27349
2017-12-14 06:40:00+00:00,234.0,240.0,13.81,17.49,,47.59359,-54.27349
2017-12-14 06:50:00+00:00,243.0,257.0,14.82,22.37,,47.59359,-54.27349
2017-12-14 07:00:00+00:00,254.0,253.0,17.25,20.2,,47.59359,-54.27349
2017-12-14 07:10:00+00:00,258.0,258.0,15.07,18.31,,47.59359,-54.27349
2017-12-14 07:20:00+00:00,259.0,263.0,14.03,16.5,,47.59359,-54.27349
2017-12-14 07:30:00+00:00,257.0,250.0,15.56,19.05,,47.59359,-54.27349
2017-12-14 07:40:00+00:00,257.0,262.0,14.48,17.35,,47.59359,-54.27349
2017-12-14 07:50:00+00:00,253.0,252.0,15.02,16.28,,47.59359,-54.27349
2017-12-14 08:00:00+00:00,250.0,248.0,12.25,14.24,,47.59359,-54.27349
2017-12-14 08:10:00+00:00,267.0,271.0,20.45,24.91,,47.59359,-54.27349
2017-12-14 08:20:00+00:00,267.0,262.0,13.76,16.28,,47.59359,-54.27349
2017-12-14 08:30:00+00:00,262.0,254.0,15.48,17.59,,47.59359,-54.27349
2017-12-14 08:40:00+00:00,260.0,262.0,13.42,16.74,,47.59359,-54.27349
2017-12-14 08:50:00+00:00,261.0,254.0,16.16,20.16,,47.59359,-54.27349
2017-12-14 09:00:00+00:00,256.0,254.0,11.93,14.45,,47.59359,-54.27349
2017-12-14 09:10:00+00:00,259.0,260.0,15.89,18.21,,47.59359,-54.27349
2017-12-14 09:20:00+00:00,248.0,247.0,11.69,13.52,,47.59359,-54.27349
2017-12-14 09:30:00+00:00,239.0,243.0,14.52,18.38,,47.59359,-54.27349
2017-12-14 09:40:00+00:00,241.0,241.0,13.86,17.92,,47.59359,-54.27349
2017-12-14 09:50:00+00:00,238.0,235.0,16.44,19.63,,47.59359,-54.27349
2017-12-14 10:00:00+00:00,246.0,247.0,16.2,20.73,,47.59359,-54.27349
2017-12-14 10:10:00+00:00,247.0,257.0,17.1,19.2,,47.59359,-54.27349
2017-12-14 10:20:00+00:00,245.0,258.0,17.77,20.71,,47.59359,-54.27349
2017-12-14 10:30:00+00:00,243.0,236.0,15.42,18.86,,47.59359,-54.27349
2017-12-14 10:40:00+00:00,248.0,242.0,16.87,20.64,,47.59359,-54.27349
2017-12-14 10:50:00+00:00,247.0,260.0,15.15,20.71,,47.59359,-54.27349
2017-12-14 11:00:00+00:00,241.0,244.0,15.8,20.83,,47.59359,-54.27349
2017-12-14 11:10:00+00:00,244.0,242.0,16.59,22.5,,47.59359,-54.27349
2017-12-14 11:20:00+00:00,244.0,239.0,17.69,21.14,,47.59359,-54.27349
2017-12-14 11:30:00+00:00,241.0,234.0,17.15,21.18,,47.59359,-54.27349
2017-12-14 11:40:00+00:00,243.0,251.0,16.01,21.02,,47.59359,-54.27349
2017-12-14 11:50:00+00:00,242.0,237.0,16.0,19.8,,47.59359,-54.27349
2017-12-14 12:00:00+00:00,245.0,248.0,19.14,22.58,,47.59359,-54.27349
2017-12-14 12:10:00+00:00,247.0,252.0,18.3,21.68,,47.59359,-54.27349
2017-12-14 12:20:00+00:00,246.0,250.0,16.82,21.87,,47.59359,-54.27349
2017-12-14 12:30:00+00:00,242.0,248.0,15.06,19.39,,47.59359,-54.27349
2017-12-14 12:40:00+00:00,243.0,246.0,15.65,19.44,,47.59359,-54.27349
2017-12-14 12:50:00+00:00,245.0,254.0,12.58,15.79,,47.59359,-54.27349
2017-12-14 13:00:00+00:00,257.0,260.0,18.04,20.37,,47.59359,-54.27349
2017-12-14 13:10:00+00:00,254.0,255.0,16.02,18.62,,47.59359,-54.27349
2017-12-14 13:20:00+00:00,253.0,251.0,15.0,17.5,,47.59359,-54.27349
2017-12-14 13:30:00+00:00,245.0,247.0,15.27,20.15,,47.59359,-54.27349
2017-12-14 13:40:00+00:00,242.0,242.0,12.37,14.07,,47.59359,-54.27349
2017-12-14 13:50:00+00:00,244.0,249.0,13.93,16.42,,47.59359,-54.27349
2017-12-14 14:00:00+00:00,249.0,250.0,12.69,15.64,,47.59359,-54.27349
2017-12-14 14:10:00+00:00,249.0,257.0,15.92,19.15,,47.59359,-54.27349
2017-12-14 14:20:00+00:00,243.0,238.0,13.32,16.0,,47.59359,-54.27349
2017-12-14 14:30:00+00:00,242.0,246.0,15.74,20.66,,47.59359,-54.27349
2017-12-14 14:40:00+00:00,239.0,235.0,15.29,18.78,,47.59359,-54.27349
2017-12-14 14:50:00+00:00,257.0,258.0,17.32,20.58,,47.59359,-54.27349
2017-12-14 15:00:00+00:00,252.0,258.0,18.31,23.11,,47.59359,-54.27349
2017-12-14 15:10:00+00:00,243.0,242.0,14.33,17.12,,47.59359,-54.27349
2017-12-14 15:20:00+00:00,257.0,257.0,17.97,22.24,,47.59359,-54.27349
2017-12-14 15:30:00+00:00,242.0,245.0,15.31,17.69,,47.59359,-54.27349
2017-12-14 15:40:00+00:00,245.0,243.0,13.33,15.7,,47.59359,-54.27349
2017-12-14 15:50:00+00:00,241.0,237.0,15.83,19.78,,47.59359,-54.27349
2017-12-14 16:00:00+00:00,242.0,246.0,14.66,18.58,,47.59359,-54.27349
2017-12-14 16:10:00+00:00,249.0,261.0,14.28,18.9,,47.59359,-54.27349
2017-12-14 16:20:00+00:00,251.0,255.0,17.61,22.8,,47.59359,-54.27349
2017-12-14 16:30:00+00:00,255.0,255.0,14.37,18.21,,47.59359,-54.27349
2017-12-14 16:40:00+00:00,250.0,247.0,16.74,19.96,,47.59359,-54.27349
2017-12-14 16:50:00+00:00,248.0,246.0,18.21,24.37,,47.59359,-54.27349
2017-12-14 17:00:00+00:00,256.0,264.0,18.6,22.6,,47.59359,-54.27349
2017-12-14 17:10:00+00:00,252.0,252.0,17.29,19.49,,47.59359,-54.27349
2017-12-14 17:20:00+00:00,258.0,253.0,18.49,22.32,,47.59359,-54.27349
2017-12-14 17:30:00+00:00,252.0,250.0,15.83,18.08,,47.59359,-54.27349
2017-12-14 17:40:00+00:00,258.0,261.0,15.62,17.95,,47.59359,-54.27349
2017-12-14 17:50:00+00:00,250.0,251.0,15.73,18.67,,47.59359,-54.27349
2017-12-14 18:00:00+00:00,249.0,246.0,17.07,21.38,,47.59359,-54.27349
2017-12-14 18:10:00+00:00,251.0,249.0,17.28,22.3,,47.59359,-54.27349
2017-12-14 18:20:00+00:00,247.0,245.0,15.52,17.2,,47.59359,-54.27349
2017-12-14 18:30:00+00:00,245.0,246.0,18.62,23.89,,47.59359,-54.27349
2017-12-14 18:40:00+00:00,247.0,246.0,16.98,19.79,,47.59359,-54.27349
2017-12-14 18:50:00+00:00,247.0,245.0,15.16,18.01,,47.59359,-54.27349
2017-12-14 19:00:00+00:00,244.0,254.0,14.51,16.66,,47.59359,-54.27349
2017-12-14 19:10:00+00:00,243.0,248.0,11.68,13.85,,47.59359,-54.27349
2017-12-14 19:20:00+00:00,239.0,247.0,11.68,15.79,,47.59359,-54.27349
2017-12-14 19:30:00+00:00,241.0,230.0,12.41,17.41,,47.59359,-54.27349
2017-12-14 19:40:00+00:00,244.0,244.0,14.68,17.58,,47.59359,-54.27349
2017-12-14 19:50:00+00:00,240.0,244.0,12.26,14.49,,47.59359,-54.27349
2017-12-14 20:00:00+00:00,239.0,249.0,11.72,13.86,,47.59359,-54.27349
2017-12-14 20:10:00+00:00,237.0,244.0,14.21,16.39,,47.59359,-54.27349
2017-12-14 20:20:00+00:00,236.0,231.0,13.44,15.6,,47.59359,-54.27349
2017-12-14 20:30:00+00:00,233.0,233.0,13.73,16.14,,47.59359,-54.27349
2017-12-14 20:40:00+00:00,236.0,235.0,12.21,14.34,,47.59359,-54.27349
2017-12-14 20:50:00+00:00,237.0,236.0,12.7,14.84,,47.59359,-54.27349
2017-12-14 21:00:00+00:00,231.0,234.0,12.44,14.99,,47.59359,-54.27349
2017-12-14 21:10:00+00:00,231.0,230.0,12.81,16.91,,47.59359,-54.27349
2017-12-14 21:20:00+00:00,232.0,232.0,13.41,15.63,,47.59359,-54.27349
2017-12-14 21:30:00+00:00,232.0,232.0,12.88,15.62,,47.59359,-54.27349
2017-12-14 21:40:00+00:00,225.0,226.0,14.47,16.86,,47.59359,-54.27349
2017-12-14 21:50:00+00:00,228.0,231.0,13.51,15.55,,47.59359,-54.27349
2017-12-14 22:00:00+00:00,226.0,225.0,15.51,17.72,,47.59359,-54.27349
2017-12-14 22:10:00+00:00,223.0,220.0,13.53,15.9,,47.59359,-54.27349
2017-12-14 22:20:00+00:00,220.0,225.0,13.09,15.19,,47.59359,-54.27349
2017-12-14 22:30:00+00:00,219.0,221.0,13.51,14.99,,47.59359,-54.27349
2017-12-14 22:40:00+00:00,213.0,214.0,12.84,15.57,,47.59359,-54.27349
2017-12-14 22:50:00+00:00,209.0,214.0,11.65,13.29,,47.59359,-54.27349
2017-12-14 23:00:00+00:00,212.0,215.0,12.51,15.39,,47.59359,-54.27349
2017-12-14 23:10:00+00:00,214.0,210.0,12.2,14.11,,47.59359,-54.27349
2017-12-14 23:20:00+00:00,211.0,208.0,12.8,14.88,,47.59359,-54.27349
2017-12-14 23:30:00+00:00,216.0,219.0,13.24,15.4,,47.59359,-54.27349
2017-12-14 23:40:00+00:00,212.0,211.0,14.59,17.22,,47.59359,-54.27349
2017-12-14 23:50:00+00:00,218.0,222.0,12.13,13.86,,47.59359,-54.27349
